Tracking 29892 objects as of 21-Nov-2024
HD Live streaming from Space Station
objects crossing your sky now

SL-12 R/B(2)

Track SL-12 R/B(2) now!


NORAD ID: 15487
Int'l Code: 1985-007D
Perigee: 34,965.7 km
Apogee: 35,112.1 km
Inclination: 8.8 °
Period: 1,397.7 minutes
Semi major axis: 41409 km
RCS: 2.1621 m2 (large)
Launch date: January 18, 1985
Source: Commonwealth of Independent States (former USSR) (CIS)
Launch site: TYURATAM MISSILE AND SPACE COMPLEX (TTMTR)

Note: This is a ROCKET BODY
Your satellite tracking list
Your tracking list is empty




NASA's NSSDC Master Catalog

Two Line Element Set (TLE):
1 15487U 85007D   24325.49062934 -.00000164  00000-0  00000-0 0  9990
2 15487   8.8154 314.7430 0017676 283.9986 262.0832  1.03025908149800
Source of the keplerian elements: AFSPC